owner,sensor,date,latitude,longitude,relative_humidity,qcFlag 
LUMCON,ioos:station:LUMCON:105:1,2011-07-02T00:00:00Z,29.1874,-90.6654,63.4,1111122 
LUMCON,ioos:station:LUMCON:105:1,2011-07-02T01:00:00Z,29.1874,-90.6654,68.8,1111122 
LUMCON,ioos:station:LUMCON:105:1,2011-07-02T02:00:00Z,29.1874,-90.6654,69.9,1111122 
LUMCON,ioos:station:LUMCON:105:1,2011-07-02T03:00:00Z,29.1874,-90.6654,74.5,1111122 
LUMCON,ioos:station:LUMCON:105:1,2011-07-02T04:00:00Z,29.1874,-90.6654,77.2,1111122 
LUMCON,ioos:station:LUMCON:105:1,2011-07-02T05:00:00Z,29.1874,-90.6654,78.1,1111122 
LUMCON,ioos:station:LUMCON:105:1,2011-07-02T06:00:00Z,29.1874,-90.6654,79.0,1111122 
LUMCON,ioos:station:LUMCON:105:1,2011-07-02T07:00:00Z,29.1874,-90.6654,81.4,1111122 
LUMCON,ioos:station:LUMCON:105:1,2011-07-02T08:00:00Z,29.1874,-90.6654,82.3,1111122 
LUMCON,ioos:station:LUMCON:105:1,2011-07-02T09:00:00Z,29.1874,-90.6654,84.8,1111122 
LUMCON,ioos:station:LUMCON:105:1,2011-07-02T10:00:00Z,29.1874,-90.6654,85.8,1111122 
LUMCON,ioos:station:LUMCON:105:1,2011-07-02T11:00:00Z,29.1874,-90.6654,86.8,1111122 
LUMCON,ioos:station:LUMCON:105:1,2011-07-02T12:00:00Z,29.1874,-90.6654,87.3,1111122 
LUMCON,ioos:station:LUMCON:105:1,2011-07-02T13:00:00Z,29.1874,-90.6654,85.3,1111122 
LUMCON,ioos:station:LUMCON:105:1,2011-07-02T14:00:00Z,29.1874,-90.6654,80.5,1111122 
LUMCON,ioos:station:LUMCON:105:1,2011-07-02T15:00:00Z,29.1874,-90.6654,72.8,1111122 
LUMCON,ioos:station:LUMCON:105:1,2011-07-02T16:00:00Z,29.1874,-90.6654,66.3,1111122 
LUMCON,ioos:station:LUMCON:105:1,2011-07-02T17:00:00Z,29.1874,-90.6654,64.8,1111122 
LUMCON,ioos:station:LUMCON:105:1,2011-07-02T18:00:00Z,29.1874,-90.6654,65.3,1111122 
LUMCON,ioos:station:LUMCON:105:1,2011-07-02T19:00:00Z,29.1874,-90.6654,66.9,1111122 
LUMCON,ioos:station:LUMCON:105:1,2011-07-02T20:00:00Z,29.1874,-90.6654,66.5,1111122 
LUMCON,ioos:station:LUMCON:105:1,2011-07-02T21:00:00Z,29.1874,-90.6654,70.7,1111122 
LUMCON,ioos:station:LUMCON:105:1,2011-07-02T23:00:00Z,29.1874,-90.6654,64.5,1111122 
LUMCON,ioos:station:LUMCON:105:1,2011-07-03T00:00:00Z,29.1874,-90.6654,71.3,1111122 
LUMCON,ioos:station:LUMCON:105:1,2011-07-03T01:00:00Z,29.1874,-90.6654,73.5,1111122 
LUMCON,ioos:station:LUMCON:105:1,2011-07-03T02:00:00Z,29.1874,-90.6654,74.9,1111122 
LUMCON,ioos:station:LUMCON:105:1,2011-07-03T03:00:00Z,29.1874,-90.6654,76.7,1111122 
LUMCON,ioos:station:LUMCON:105:1,2011-07-03T04:00:00Z,29.1874,-90.6654,80.9,1111122 
LUMCON,ioos:station:LUMCON:105:1,2011-07-03T05:00:00Z,29.1874,-90.6654,82.8,1111122 
LUMCON,ioos:station:LUMCON:105:1,2011-07-03T06:00:00Z,29.1874,-90.6654,81.4,1111122 
LUMCON,ioos:station:LUMCON:105:1,2011-07-03T07:00:00Z,29.1874,-90.6654,79.9,1111122 
LUMCON,ioos:station:LUMCON:105:1,2011-07-03T08:00:00Z,29.1874,-90.6654,81.9,1111122 
LUMCON,ioos:station:LUMCON:105:1,2011-07-03T09:00:00Z,29.1874,-90.6654,82.8,1111122 
LUMCON,ioos:station:LUMCON:105:1,2011-07-03T10:00:00Z,29.1874,-90.6654,84.8,1111122 
LUMCON,ioos:station:LUMCON:105:1,2011-07-03T11:00:00Z,29.1874,-90.6654,86.8,1111122 
LUMCON,ioos:station:LUMCON:105:1,2011-07-03T12:00:00Z,29.1874,-90.6654,89.4,1111122 
LUMCON,ioos:station:LUMCON:105:1,2011-07-03T22:00:00Z,29.1874,-90.6654,58.8,1111122 
LUMCON,ioos:station:LUMCON:105:1,2011-07-04T00:00:00Z,29.1874,-90.6654,68.6,1111122 
LUMCON,ioos:station:LUMCON:105:1,2011-07-04T01:00:00Z,29.1874,-90.6654,70.6,1111122 
LUMCON,ioos:station:LUMCON:105:1,2011-07-04T02:00:00Z,29.1874,-90.6654,71.9,1111122 
LUMCON,ioos:station:LUMCON:105:1,2011-07-04T03:00:00Z,29.1874,-90.6654,72.3,1111122 
LUMCON,ioos:station:LUMCON:105:1,2011-07-04T04:00:00Z,29.1874,-90.6654,71.0,1111122 
LUMCON,ioos:station:LUMCON:105:1,2011-07-04T05:00:00Z,29.1874,-90.6654,71.0,1111122 
LUMCON,ioos:station:LUMCON:105:1,2011-07-04T06:00:00Z,29.1874,-90.6654,71.0,1111122 
LUMCON,ioos:station:LUMCON:105:1,2011-07-04T07:00:00Z,29.1874,-90.6654,73.2,1111122 
LUMCON,ioos:station:LUMCON:105:1,2011-07-04T08:00:00Z,29.1874,-90.6654,71.9,1111122 
LUMCON,ioos:station:LUMCON:105:1,2011-07-04T09:00:00Z,29.1874,-90.6654,73.2,1111122 
LUMCON,ioos:station:LUMCON:105:1,2011-07-04T10:00:00Z,29.1874,-90.6654,73.6,1111122 
LUMCON,ioos:station:LUMCON:105:1,2011-07-04T11:00:00Z,29.1874,-90.6654,78.5,1111122 
LUMCON,ioos:station:LUMCON:105:1,2011-07-04T12:00:00Z,29.1874,-90.6654,79.4,1111122 
LUMCON,ioos:station:LUMCON:105:1,2011-07-04T20:00:00Z,29.1874,-90.6654,61.3,1111122 
LUMCON,ioos:station:LUMCON:105:1,2011-07-04T21:00:00Z,29.1874,-90.6654,59.8,1111122 
LUMCON,ioos:station:LUMCON:105:1,2011-07-04T22:00:00Z,29.1874,-90.6654,62.0,1111122 
LUMCON,ioos:station:LUMCON:105:1,2011-07-04T23:00:00Z,29.1874,-90.6654,60.6,1111122 
LUMCON,ioos:station:LUMCON:105:1,2011-07-05T00:00:00Z,29.1874,-90.6654,64.7,1111122 
LUMCON,ioos:station:LUMCON:105:1,2011-07-05T01:00:00Z,29.1874,-90.6654,65.4,1111122 
LUMCON,ioos:station:LUMCON:105:1,2011-07-05T02:00:00Z,29.1874,-90.6654,68.2,1111122 
LUMCON,ioos:station:LUMCON:105:1,2011-07-05T03:00:00Z,29.1874,-90.6654,69.8,1111122 
LUMCON,ioos:station:LUMCON:105:1,2011-07-05T04:00:00Z,29.1874,-90.6654,69.4,1111122 
LUMCON,ioos:station:LUMCON:105:1,2011-07-05T05:00:00Z,29.1874,-90.6654,68.5,1111122 
LUMCON,ioos:station:LUMCON:105:1,2011-07-05T06:00:00Z,29.1874,-90.6654,68.5,1111122 
LUMCON,ioos:station:LUMCON:105:1,2011-07-05T07:00:00Z,29.1874,-90.6654,77.6,1111122 
LUMCON,ioos:station:LUMCON:105:1,2011-07-05T08:00:00Z,29.1874,-90.6654,75.8,1111122 
LUMCON,ioos:station:LUMCON:105:1,2011-07-05T09:00:00Z,29.1874,-90.6654,78.0,1111122 
LUMCON,ioos:station:LUMCON:105:1,2011-07-05T10:00:00Z,29.1874,-90.6654,77.5,1111122 
LUMCON,ioos:station:LUMCON:105:1,2011-07-05T11:00:00Z,29.1874,-90.6654,78.5,1111122 
LUMCON,ioos:station:LUMCON:105:1,2011-07-05T12:00:00Z,29.1874,-90.6654,77.0,1111122 
LUMCON,ioos:station:LUMCON:105:1,2011-07-05T18:00:00Z,29.1874,-90.6654,65.4,1111122 
LUMCON,ioos:station:LUMCON:105:1,2011-07-05T19:00:00Z,29.1874,-90.6654,63.8,1111122 
LUMCON,ioos:station:LUMCON:105:1,2011-07-05T20:00:00Z,29.1874,-90.6654,61.6,1111122 
LUMCON,ioos:station:LUMCON:105:1,2011-07-05T21:00:00Z,29.1874,-90.6654,62.0,1111122 
LUMCON,ioos:station:LUMCON:105:1,2011-07-05T22:00:00Z,29.1874,-90.6654,67.7,1111122 
LUMCON,ioos:station:LUMCON:105:1,2011-07-05T23:00:00Z,29.1874,-90.6654,67.7,1111122 
LUMCON,ioos:station:LUMCON:105:1,2011-07-06T01:00:00Z,29.1874,-90.6654,67.2,1111122 
LUMCON,ioos:station:LUMCON:105:1,2011-07-06T02:00:00Z,29.1874,-90.6654,69.3,1111122 
LUMCON,ioos:station:LUMCON:105:1,2011-07-06T03:00:00Z,29.1874,-90.6654,70.6,1111122 
LUMCON,ioos:station:LUMCON:105:1,2011-07-06T04:00:00Z,29.1874,-90.6654,75.3,1111122 
LUMCON,ioos:station:LUMCON:105:1,2011-07-06T05:00:00Z,29.1874,-90.6654,74.8,1111122 
LUMCON,ioos:station:LUMCON:105:1,2011-07-06T06:00:00Z,29.1874,-90.6654,77.5,1111122 
LUMCON,ioos:station:LUMCON:105:1,2011-07-06T07:00:00Z,29.1874,-90.6654,77.1,1111122 
LUMCON,ioos:station:LUMCON:105:1,2011-07-06T08:00:00Z,29.1874,-90.6654,77.5,1111122 
LUMCON,ioos:station:LUMCON:105:1,2011-07-06T09:00:00Z,29.1874,-90.6654,77.5,1111122 
LUMCON,ioos:station:LUMCON:105:1,2011-07-06T10:00:00Z,29.1874,-90.6654,78.4,1111122 
LUMCON,ioos:station:LUMCON:105:1,2011-07-06T11:00:00Z,29.1874,-90.6654,81.2,1111122 
LUMCON,ioos:station:LUMCON:105:1,2011-07-06T12:00:00Z,29.1874,-90.6654,80.7,1111122 
LUMCON,ioos:station:LUMCON:105:1,2011-07-06T13:00:00Z,29.1874,-90.6654,77.0,1111122 
LUMCON,ioos:station:LUMCON:105:1,2011-07-06T14:00:00Z,29.1874,-90.6654,78.5,1111122 
LUMCON,ioos:station:LUMCON:105:1,2011-07-06T15:00:00Z,29.1874,-90.6654,73.6,1111122 
LUMCON,ioos:station:LUMCON:105:1,2011-07-06T16:00:00Z,29.1874,-90.6654,72.3,1111122 
LUMCON,ioos:station:LUMCON:105:1,2011-07-06T17:00:00Z,29.1874,-90.6654,69.3,1111122 
LUMCON,ioos:station:LUMCON:105:1,2011-07-06T18:00:00Z,29.1874,-90.6654,68.1,1111122 
LUMCON,ioos:station:LUMCON:105:1,2011-07-06T19:00:00Z,29.1874,-90.6654,65.8,1111122 
LUMCON,ioos:station:LUMCON:105:1,2011-07-06T20:00:00Z,29.1874,-90.6654,62.7,1111122 
LUMCON,ioos:station:LUMCON:105:1,2011-07-06T21:00:00Z,29.1874,-90.6654,60.1,1111122 
LUMCON,ioos:station:LUMCON:105:1,2011-07-06T22:00:00Z,29.1874,-90.6654,60.2,1111122 
LUMCON,ioos:station:LUMCON:105:1,2011-07-06T23:00:00Z,29.1874,-90.6654,73.5,1111122 
LUMCON,ioos:station:LUMCON:105:1,2011-07-07T00:00:00Z,29.1874,-90.6654,74.3,1111122 
LUMCON,ioos:station:LUMCON:105:1,2011-07-07T01:00:00Z,29.1874,-90.6654,76.1,1111122 
LUMCON,ioos:station:LUMCON:105:1,2011-07-07T02:00:00Z,29.1874,-90.6654,77.5,1111122 
LUMCON,ioos:station:LUMCON:105:1,2011-07-07T03:00:00Z,29.1874,-90.6654,75.2,1111122 
LUMCON,ioos:station:LUMCON:105:1,2011-07-07T04:00:00Z,29.1874,-90.6654,76.1,1111122 
LUMCON,ioos:station:LUMCON:105:1,2011-07-07T05:00:00Z,29.1874,-90.6654,77.1,1111122 
LUMCON,ioos:station:LUMCON:105:1,2011-07-07T06:00:00Z,29.1874,-90.6654,79.3,1111122 
LUMCON,ioos:station:LUMCON:105:1,2011-07-07T07:00:00Z,29.1874,-90.6654,81.7,1111122 
LUMCON,ioos:station:LUMCON:105:1,2011-07-07T08:00:00Z,29.1874,-90.6654,80.8,1111122 
LUMCON,ioos:station:LUMCON:105:1,2011-07-07T09:00:00Z,29.1874,-90.6654,83.2,1111122 
LUMCON,ioos:station:LUMCON:105:1,2011-07-07T10:00:00Z,29.1874,-90.6654,83.7,1111122 
LUMCON,ioos:station:LUMCON:105:1,2011-07-07T11:00:00Z,29.1874,-90.6654,84.2,1111122 
LUMCON,ioos:station:LUMCON:105:1,2011-07-07T12:00:00Z,29.1874,-90.6654,84.2,1111122 
LUMCON,ioos:station:LUMCON:105:1,2011-07-07T13:00:00Z,29.1874,-90.6654,75.6,1111122 
LUMCON,ioos:station:LUMCON:105:1,2011-07-07T14:00:00Z,29.1874,-90.6654,72.7,1111122 
LUMCON,ioos:station:LUMCON:105:1,2011-07-07T15:00:00Z,29.1874,-90.6654,69.0,1111122 
LUMCON,ioos:station:LUMCON:105:1,2011-07-07T16:00:00Z,29.1874,-90.6654,66.5,1111122 
LUMCON,ioos:station:LUMCON:105:1,2011-07-07T17:00:00Z,29.1874,-90.6654,65.0,1111122 
LUMCON,ioos:station:LUMCON:105:1,2011-07-07T18:00:00Z,29.1874,-90.6654,62.8,1111122 
LUMCON,ioos:station:LUMCON:105:1,2011-07-07T20:00:00Z,29.1874,-90.6654,65.5,1111122 
LUMCON,ioos:station:LUMCON:105:1,2011-07-07T21:00:00Z,29.1874,-90.6654,67.7,1111122 
LUMCON,ioos:station:LUMCON:105:1,2011-07-07T22:00:00Z,29.1874,-90.6654,71.3,1111122 
LUMCON,ioos:station:LUMCON:105:1,2011-07-07T23:00:00Z,29.1874,-90.6654,71.9,1111122 
LUMCON,ioos:station:LUMCON:105:1,2011-07-08T00:00:00Z,29.1874,-90.6654,62.8,1111122 
LUMCON,ioos:station:LUMCON:105:1,2011-07-08T01:00:00Z,29.1874,-90.6654,67.4,1111122 
LUMCON,ioos:station:LUMCON:105:1,2011-07-08T02:00:00Z,29.1874,-90.6654,71.1,1111122 
LUMCON,ioos:station:LUMCON:105:1,2011-07-08T03:00:00Z,29.1874,-90.6654,72.4,1111122 
LUMCON,ioos:station:LUMCON:105:1,2011-07-08T04:00:00Z,29.1874,-90.6654,74.1,1111122 
LUMCON,ioos:station:LUMCON:105:1,2011-07-08T05:00:00Z,29.1874,-90.6654,75.0,1111122 
LUMCON,ioos:station:LUMCON:105:1,2011-07-08T06:00:00Z,29.1874,-90.6654,76.3,1111122 
LUMCON,ioos:station:LUMCON:105:1,2011-07-08T07:00:00Z,29.1874,-90.6654,74.4,1111122 
LUMCON,ioos:station:LUMCON:105:1,2011-07-08T08:00:00Z,29.1874,-90.6654,76.2,1111122 
LUMCON,ioos:station:LUMCON:105:1,2011-07-08T09:00:00Z,29.1874,-90.6654,76.7,1111122 
LUMCON,ioos:station:LUMCON:105:1,2011-07-08T10:00:00Z,29.1874,-90.6654,79.0,1111122 
LUMCON,ioos:station:LUMCON:105:1,2011-07-08T11:00:00Z,29.1874,-90.6654,81.4,1111122 
LUMCON,ioos:station:LUMCON:105:1,2011-07-08T12:00:00Z,29.1874,-90.6654,81.3,1111122 
LUMCON,ioos:station:LUMCON:105:1,2011-07-08T13:00:00Z,29.1874,-90.6654,80.0,1111122 
LUMCON,ioos:station:LUMCON:105:1,2011-07-08T14:00:00Z,29.1874,-90.6654,76.8,1111122 
LUMCON,ioos:station:LUMCON:105:1,2011-07-08T15:00:00Z,29.1874,-90.6654,71.9,1111122 
LUMCON,ioos:station:LUMCON:105:1,2011-07-08T16:00:00Z,29.1874,-90.6654,69.4,1111122 
LUMCON,ioos:station:LUMCON:105:1,2011-07-08T17:00:00Z,29.1874,-90.6654,68.2,1111122 
LUMCON,ioos:station:LUMCON:105:1,2011-07-08T18:00:00Z,29.1874,-90.6654,59.8,1111122 
LUMCON,ioos:station:LUMCON:105:1,2011-07-08T19:00:00Z,29.1874,-90.6654,59.9,1111122 
LUMCON,ioos:station:LUMCON:105:1,2011-07-08T20:00:00Z,29.1874,-90.6654,61.8,1111122 
LUMCON,ioos:station:LUMCON:105:1,2011-07-08T21:00:00Z,29.1874,-90.6654,62.9,1111122 
LUMCON,ioos:station:LUMCON:105:1,2011-07-08T22:00:00Z,29.1874,-90.6654,61.8,1111122 
LUMCON,ioos:station:LUMCON:105:1,2011-07-08T23:00:00Z,29.1874,-90.6654,68.0,1111122 
LUMCON,ioos:station:LUMCON:105:1,2011-07-09T00:00:00Z,29.1874,-90.6654,67.6,1111122 
LUMCON,ioos:station:LUMCON:105:1,2011-07-09T01:00:00Z,29.1874,-90.6654,69.5,1111122 
LUMCON,ioos:station:LUMCON:105:1,2011-07-09T02:00:00Z,29.1874,-90.6654,69.9,1111122 
LUMCON,ioos:station:LUMCON:105:1,2011-07-09T03:00:00Z,29.1874,-90.6654,73.7,1111122 
LUMCON,ioos:station:LUMCON:105:1,2011-07-09T04:00:00Z,29.1874,-90.6654,75.5,1111122 
LUMCON,ioos:station:LUMCON:105:1,2011-07-09T05:00:00Z,29.1874,-90.6654,78.2,1111122 
LUMCON,ioos:station:LUMCON:105:1,2011-07-09T06:00:00Z,29.1874,-90.6654,77.3,1111122 
LUMCON,ioos:station:LUMCON:105:1,2011-07-09T07:00:00Z,29.1874,-90.6654,77.7,1111122 
LUMCON,ioos:station:LUMCON:105:1,2011-07-09T08:00:00Z,29.1874,-90.6654,76.7,1111122 
LUMCON,ioos:station:LUMCON:105:1,2011-07-09T09:00:00Z,29.1874,-90.6654,79.0,1111122 
LUMCON,ioos:station:LUMCON:105:1,2011-07-09T10:00:00Z,29.1874,-90.6654,80.0,1111122 
LUMCON,ioos:station:LUMCON:105:1,2011-07-09T11:00:00Z,29.1874,-90.6654,79.0,1111122 
LUMCON,ioos:station:LUMCON:105:1,2011-07-09T12:00:00Z,29.1874,-90.6654,77.7,1111122 
LUMCON,ioos:station:LUMCON:105:1,2011-07-09T13:00:00Z,29.1874,-90.6654,75.4,1111122 
LUMCON,ioos:station:LUMCON:105:1,2011-07-09T14:00:00Z,29.1874,-90.6654,71.1,1111122 
LUMCON,ioos:station:LUMCON:105:1,2011-07-09T15:00:00Z,29.1874,-90.6654,67.0,1111122 
LUMCON,ioos:station:LUMCON:105:1,2011-07-09T16:00:00Z,29.1874,-90.6654,66.2,1111122 
LUMCON,ioos:station:LUMCON:105:1,2011-07-09T17:00:00Z,29.1874,-90.6654,63.9,1111122 
LUMCON,ioos:station:LUMCON:105:1,2011-07-09T18:00:00Z,29.1874,-90.6654,62.5,1111122 
LUMCON,ioos:station:LUMCON:105:1,2011-07-09T19:00:00Z,29.1874,-90.6654,64.0,1111122 
LUMCON,ioos:station:LUMCON:105:1,2011-07-09T20:00:00Z,29.1874,-90.6654,62.5,1111122 
LUMCON,ioos:station:LUMCON:105:1,2011-07-09T21:00:00Z,29.1874,-90.6654,61.4,1111122 
LUMCON,ioos:station:LUMCON:105:1,2011-07-09T22:00:00Z,29.1874,-90.6654,61.5,1111122 
LUMCON,ioos:station:LUMCON:105:1,2011-07-09T23:00:00Z,29.1874,-90.6654,57.9,1111122 
LUMCON,ioos:station:LUMCON:105:1,2011-07-10T00:00:00Z,29.1874,-90.6654,59.3,1111122 
LUMCON,ioos:station:LUMCON:105:1,2011-07-10T01:00:00Z,29.1874,-90.6654,64.8,1111122 
LUMCON,ioos:station:LUMCON:105:1,2011-07-10T02:00:00Z,29.1874,-90.6654,67.1,1111122 
LUMCON,ioos:station:LUMCON:105:1,2011-07-10T03:00:00Z,29.1874,-90.6654,66.3,1111122 
LUMCON,ioos:station:LUMCON:105:1,2011-07-10T04:00:00Z,29.1874,-90.6654,63.9,1111122 
LUMCON,ioos:station:LUMCON:105:1,2011-07-10T05:00:00Z,29.1874,-90.6654,65.8,1111122 
LUMCON,ioos:station:LUMCON:105:1,2011-07-10T06:00:00Z,29.1874,-90.6654,71.5,1111122 
LUMCON,ioos:station:LUMCON:105:1,2011-07-10T07:00:00Z,29.1874,-90.6654,73.7,1111122 
LUMCON,ioos:station:LUMCON:105:1,2011-07-10T08:00:00Z,29.1874,-90.6654,71.9,1111122 
LUMCON,ioos:station:LUMCON:105:1,2011-07-10T09:00:00Z,29.1874,-90.6654,74.1,1111122 
LUMCON,ioos:station:LUMCON:105:1,2011-07-10T10:00:00Z,29.1874,-90.6654,77.7,1111122 
LUMCON,ioos:station:LUMCON:105:1,2011-07-10T11:00:00Z,29.1874,-90.6654,80.0,1111122 
LUMCON,ioos:station:LUMCON:105:1,2011-07-10T12:00:00Z,29.1874,-90.6654,78.1,1111122 
LUMCON,ioos:station:LUMCON:105:1,2011-07-10T13:00:00Z,29.1874,-90.6654,75.0,1111122 
LUMCON,ioos:station:LUMCON:105:1,2011-07-10T14:00:00Z,29.1874,-90.6654,72.0,1111122 
LUMCON,ioos:station:LUMCON:105:1,2011-07-10T15:00:00Z,29.1874,-90.6654,68.7,1111122 
LUMCON,ioos:station:LUMCON:105:1,2011-07-10T16:00:00Z,29.1874,-90.6654,71.6,1111122 
LUMCON,ioos:station:LUMCON:105:1,2011-07-10T17:00:00Z,29.1874,-90.6654,71.2,1111122 
LUMCON,ioos:station:LUMCON:105:1,2011-07-10T18:00:00Z,29.1874,-90.6654,68.3,1111122 
LUMCON,ioos:station:LUMCON:105:1,2011-07-10T19:00:00Z,29.1874,-90.6654,63.2,1111122 
LUMCON,ioos:station:LUMCON:105:1,2011-07-10T20:00:00Z,29.1874,-90.6654,58.1,1111122 
LUMCON,ioos:station:LUMCON:105:1,2011-07-10T21:00:00Z,29.1874,-90.6654,61.0,1111122 
LUMCON,ioos:station:LUMCON:105:1,2011-07-10T22:00:00Z,29.1874,-90.6654,61.1,1111122 
LUMCON,ioos:station:LUMCON:105:1,2011-07-10T23:00:00Z,29.1874,-90.6654,63.3,1111122 
LUMCON,ioos:station:LUMCON:105:1,2011-07-11T00:00:00Z,29.1874,-90.6654,66.8,1111122 
LUMCON,ioos:station:LUMCON:105:1,2011-07-11T01:00:00Z,29.1874,-90.6654,68.8,1111122 
LUMCON,ioos:station:LUMCON:105:1,2011-07-11T02:00:00Z,29.1874,-90.6654,70.8,1111122 
LUMCON,ioos:station:LUMCON:105:1,2011-07-11T03:00:00Z,29.1874,-90.6654,72.5,1111122 
LUMCON,ioos:station:LUMCON:105:1,2011-07-11T04:00:00Z,29.1874,-90.6654,72.0,1111122 
LUMCON,ioos:station:LUMCON:105:1,2011-07-11T05:00:00Z,29.1874,-90.6654,71.6,1111122 
LUMCON,ioos:station:LUMCON:105:1,2011-07-11T06:00:00Z,29.1874,-90.6654,72.4,1111122 
LUMCON,ioos:station:LUMCON:105:1,2011-07-11T07:00:00Z,29.1874,-90.6654,75.9,1111122 
LUMCON,ioos:station:LUMCON:105:1,2011-07-11T08:00:00Z,29.1874,-90.6654,76.8,1111122 
LUMCON,ioos:station:LUMCON:105:1,2011-07-11T09:00:00Z,29.1874,-90.6654,80.0,1111122 
LUMCON,ioos:station:LUMCON:105:1,2011-07-11T10:00:00Z,29.1874,-90.6654,78.6,1111122 
LUMCON,ioos:station:LUMCON:105:1,2011-07-11T11:00:00Z,29.1874,-90.6654,80.5,1111122 
LUMCON,ioos:station:LUMCON:105:1,2011-07-11T12:00:00Z,29.1874,-90.6654,79.1,1111122 
LUMCON,ioos:station:LUMCON:105:1,2011-07-11T13:00:00Z,29.1874,-90.6654,75.5,1111122 
LUMCON,ioos:station:LUMCON:105:1,2011-07-11T14:00:00Z,29.1874,-90.6654,72.9,1111122 
LUMCON,ioos:station:LUMCON:105:1,2011-07-11T15:00:00Z,29.1874,-90.6654,67.9,1111122 
LUMCON,ioos:station:LUMCON:105:1,2011-07-11T16:00:00Z,29.1874,-90.6654,66.3,1111122 
LUMCON,ioos:station:LUMCON:105:1,2011-07-11T17:00:00Z,29.1874,-90.6654,64.8,1111122 
LUMCON,ioos:station:LUMCON:105:1,2011-07-11T18:00:00Z,29.1874,-90.6654,68.0,1111122 
LUMCON,ioos:station:LUMCON:105:1,2011-07-11T19:00:00Z,29.1874,-90.6654,66.0,1111122 
LUMCON,ioos:station:LUMCON:105:1,2011-07-11T20:00:00Z,29.1874,-90.6654,66.5,1111122 
LUMCON,ioos:station:LUMCON:105:1,2011-07-11T21:00:00Z,29.1874,-90.6654,65.7,1111122 
LUMCON,ioos:station:LUMCON:105:1,2011-07-11T22:00:00Z,29.1874,-90.6654,66.9,1111122 
LUMCON,ioos:station:LUMCON:105:1,2011-07-11T23:00:00Z,29.1874,-90.6654,66.5,1111122 
LUMCON,ioos:station:LUMCON:105:1,2011-07-12T00:00:00Z,29.1874,-90.6654,68.1,1111122 
LUMCON,ioos:station:LUMCON:105:1,2011-07-12T14:00:00Z,29.1874,-90.6654,83.9,1111122 
LUMCON,ioos:station:LUMCON:105:1,2011-07-12T15:00:00Z,29.1874,-90.6654,81.5,1111122 
LUMCON,ioos:station:LUMCON:105:1,2011-07-12T16:00:00Z,29.1874,-90.6654,80.0,1111122 
LUMCON,ioos:station:LUMCON:105:1,2011-07-12T17:00:00Z,29.1874,-90.6654,84.2,1111122 
LUMCON,ioos:station:LUMCON:105:1,2011-07-12T18:00:00Z,29.1874,-90.6654,83.2,1111122 
LUMCON,ioos:station:LUMCON:105:1,2011-07-12T19:00:00Z,29.1874,-90.6654,77.6,1111122 
LUMCON,ioos:station:LUMCON:105:1,2011-07-12T20:00:00Z,29.1874,-90.6654,73.2,1111122 
LUMCON,ioos:station:LUMCON:105:1,2011-07-12T21:00:00Z,29.1874,-90.6654,72.3,1111122 
LUMCON,ioos:station:LUMCON:105:1,2011-07-12T23:00:00Z,29.1874,-90.6654,75.0,1111122 
LUMCON,ioos:station:LUMCON:105:1,2011-07-13T00:00:00Z,29.1874,-90.6654,78.6,1111122 
LUMCON,ioos:station:LUMCON:105:1,2011-07-13T01:00:00Z,29.1874,-90.6654,80.0,1111122 
LUMCON,ioos:station:LUMCON:105:1,2011-07-13T02:00:00Z,29.1874,-90.6654,83.4,1111122 
LUMCON,ioos:station:LUMCON:105:1,2011-07-13T03:00:00Z,29.1874,-90.6654,82.9,1111122 
LUMCON,ioos:station:LUMCON:105:1,2011-07-13T04:00:00Z,29.1874,-90.6654,81.4,1111122 
LUMCON,ioos:station:LUMCON:105:1,2011-07-13T05:00:00Z,29.1874,-90.6654,82.4,1111122 
LUMCON,ioos:station:LUMCON:105:1,2011-07-13T06:00:00Z,29.1874,-90.6654,80.9,1111122 
LUMCON,ioos:station:LUMCON:105:1,2011-07-13T07:00:00Z,29.1874,-90.6654,82.4,1111122 
LUMCON,ioos:station:LUMCON:105:1,2011-07-13T08:00:00Z,29.1874,-90.6654,84.3,1111122 
LUMCON,ioos:station:LUMCON:105:1,2011-07-13T09:00:00Z,29.1874,-90.6654,85.8,1111122 
LUMCON,ioos:station:LUMCON:105:1,2011-07-13T10:00:00Z,29.1874,-90.6654,84.8,1111122 
LUMCON,ioos:station:LUMCON:105:1,2011-07-13T11:00:00Z,29.1874,-90.6654,85.8,1111122 
LUMCON,ioos:station:LUMCON:105:1,2011-07-13T12:00:00Z,29.1874,-90.6654,88.4,1111122 
LUMCON,ioos:station:LUMCON:105:1,2011-07-13T14:00:00Z,29.1874,-90.6654,77.7,1111122 
LUMCON,ioos:station:LUMCON:105:1,2011-07-13T15:00:00Z,29.1874,-90.6654,77.3,1111122 
LUMCON,ioos:station:LUMCON:105:1,2011-07-13T16:00:00Z,29.1874,-90.6654,70.8,1111122 
LUMCON,ioos:station:LUMCON:105:1,2011-07-13T17:00:00Z,29.1874,-90.6654,70.7,1111122 
LUMCON,ioos:station:LUMCON:105:1,2011-07-13T18:00:00Z,29.1874,-90.6654,76.7,1111122 
LUMCON,ioos:station:LUMCON:105:1,2011-07-13T19:00:00Z,29.1874,-90.6654,73.2,1111122 
LUMCON,ioos:station:LUMCON:105:1,2011-07-13T20:00:00Z,29.1874,-90.6654,75.9,1111122 
LUMCON,ioos:station:LUMCON:105:1,2011-07-13T21:00:00Z,29.1874,-90.6654,74.1,1111122 
LUMCON,ioos:station:LUMCON:105:1,2011-07-13T22:00:00Z,29.1874,-90.6654,84.8,1111122 
LUMCON,ioos:station:LUMCON:105:1,2011-07-13T23:00:00Z,29.1874,-90.6654,81.4,1111122 
LUMCON,ioos:station:LUMCON:105:1,2011-07-14T00:00:00Z,29.1874,-90.6654,80.9,1111122 
LUMCON,ioos:station:LUMCON:105:1,2011-07-14T01:00:00Z,29.1874,-90.6654,84.8,1111122 
LUMCON,ioos:station:LUMCON:105:1,2011-07-14T02:00:00Z,29.1874,-90.6654,86.9,1111122 
LUMCON,ioos:station:LUMCON:105:1,2011-07-14T03:00:00Z,29.1874,-90.6654,86.9,1111122 
LUMCON,ioos:station:LUMCON:105:1,2011-07-14T04:00:00Z,29.1874,-90.6654,86.9,1111122 
LUMCON,ioos:station:LUMCON:105:1,2011-07-14T05:00:00Z,29.1874,-90.6654,84.8,1111122 
LUMCON,ioos:station:LUMCON:105:1,2011-07-14T06:00:00Z,29.1874,-90.6654,86.4,1111122 
LUMCON,ioos:station:LUMCON:105:1,2011-07-14T07:00:00Z,29.1874,-90.6654,87.9,1111122 
LUMCON,ioos:station:LUMCON:105:1,2011-07-14T08:00:00Z,29.1874,-90.6654,89.4,1111122 
LUMCON,ioos:station:LUMCON:105:1,2011-07-14T09:00:00Z,29.1874,-90.6654,89.4,1111122 
LUMCON,ioos:station:LUMCON:105:1,2011-07-14T10:00:00Z,29.1874,-90.6654,89.4,1111122 
LUMCON,ioos:station:LUMCON:105:1,2011-07-14T11:00:00Z,29.1874,-90.6654,87.3,1111122 
LUMCON,ioos:station:LUMCON:105:1,2011-07-14T12:00:00Z,29.1874,-90.6654,88.9,1111122 
LUMCON,ioos:station:LUMCON:105:1,2011-07-14T13:00:00Z,29.1874,-90.6654,84.8,1111122 
LUMCON,ioos:station:LUMCON:105:1,2011-07-14T14:00:00Z,29.1874,-90.6654,91.4,1111122 
LUMCON,ioos:station:LUMCON:105:1,2011-07-14T15:00:00Z,29.1874,-90.6654,87.2,1111122 
LUMCON,ioos:station:LUMCON:105:1,2011-07-14T16:00:00Z,29.1874,-90.6654,71.4,1111122 
LUMCON,ioos:station:LUMCON:105:1,2011-07-14T17:00:00Z,29.1874,-90.6654,78.5,1111122 
LUMCON,ioos:station:LUMCON:105:1,2011-07-14T18:00:00Z,29.1874,-90.6654,71.0,1111122 
LUMCON,ioos:station:LUMCON:105:1,2011-07-14T19:00:00Z,29.1874,-90.6654,77.6,1111122 
LUMCON,ioos:station:LUMCON:105:1,2011-07-14T20:00:00Z,29.1874,-90.6654,88.8,1111122 
LUMCON,ioos:station:LUMCON:105:1,2011-07-14T21:00:00Z,29.1874,-90.6654,92.5,1111122 
LUMCON,ioos:station:LUMCON:105:1,2011-07-14T22:00:00Z,29.1874,-90.6654,90.9,1111122 
LUMCON,ioos:station:LUMCON:105:1,2011-07-14T23:00:00Z,29.1874,-90.6654,89.3,1111122 
LUMCON,ioos:station:LUMCON:105:1,2011-07-15T00:00:00Z,29.1874,-90.6654,88.3,1111122 
LUMCON,ioos:station:LUMCON:105:1,2011-07-15T01:00:00Z,29.1874,-90.6654,88.8,1111122 
LUMCON,ioos:station:LUMCON:105:1,2011-07-15T02:00:00Z,29.1874,-90.6654,89.8,1111122 
LUMCON,ioos:station:LUMCON:105:1,2011-07-15T03:00:00Z,29.1874,-90.6654,89.8,1111122 
LUMCON,ioos:station:LUMCON:105:1,2011-07-15T04:00:00Z,29.1874,-90.6654,90.9,1111122 
LUMCON,ioos:station:LUMCON:105:1,2011-07-15T05:00:00Z,29.1874,-90.6654,92.0,1111122 
LUMCON,ioos:station:LUMCON:105:1,2011-07-15T06:00:00Z,29.1874,-90.6654,90.4,1111122 
LUMCON,ioos:station:LUMCON:105:1,2011-07-15T07:00:00Z,29.1874,-90.6654,91.0,1111122 
LUMCON,ioos:station:LUMCON:105:1,2011-07-15T08:00:00Z,29.1874,-90.6654,90.4,1111122 